Regional Weather Roundup
Issued by NWS Upton, NY

Current Version | Previous Version | Text Only | Print | Product List | Glossary On
Versions: 1 2 3 4 5 6 7 8 9 10 11 12 13 14 15 16 17 18 19 20 21 22 23 24 25 26 27 28 29 30 31 32 33 34 35 36 37 38 39 40 41 42 43 44 45 46 47 48 49 50
079 ASUS41 KOKX 101308 RWROKX REGIONAL WEATHER ROUNDUP NATIONAL WEATHER SERVICE NEW YORK NY 800 AM EST SUN DEC 10 2017 NOTE: "FAIR" INDICATES FEW OR NO CLOUDS BELOW 12,000 FEET WITH NO SIGNIFICANT WEATHER AND/OR OBSTRUCTIONS TO VISIBILITY. NYZ071-072-176-178-NJZ106-104-101400- NEW YORK CITY METRO AREA CITY SKY/WX TMP DP RH WIND PRES REMARKS Central Park PTCLDY 29 21 72 SW8 29.89R HAZE WCI 21 Bronx Bot Gard N/A 32 19 59 SW9 29.87S WCI 24 Bronx Lehman C N/A 32 21 64 W6 N/A WCI 26 LaGuardia APRT MOCLDY 32 21 64 W12 29.88R WCI 23 Queens College N/A 32 21 64 W7 N/A WCI 26 Kennedy INTL MOCLDY 30 22 72 W13 29.90R WCI 20 Breezy Point N/A N/A N/A N/A W14G22 N/A Brooklyn Coll N/A 32 23 69 W7 N/A WCI 26 Staten Island N/A 28 23 80 W7 N/A WCI 21 Newark/Liberty PTCLDY 28 20 71 W9 29.89R WCI 19 Teterboro PTCLDY 29 19 66 W6 29.87R WCI 23 $$ NYZ177-179-078>081-101400- LONG ISLAND NEW YORK CITY SKY/WX TMP DP RH WIND PRES REMARKS Jones Beach N/A 32 N/A N/A W16 N/A WCI 21 Wantagh N/A 30 25 80 W7 N/A WCI 23 Matinecock PT N/A 32 N/A N/A W20 N/A WCI 20 Farmingdale CLOUDY 30 23 75 W9 29.87R WCI 22 MacArthur/ISP MOCLDY 30 26 85 W7 29.84R WCI 23 Shirley PTCLDY 30 29 96 W6 29.85R WCI 24 Mt Sinai Harb N/A N/A N/A N/A W9G16 N/A Westhampton PTCLDY 32 28 85 W8 29.84R WCI 25 East Hampton FAIR 33 29 84 NW8 29.81R WCI 26 Southold N/A 34 28 80 W8 N/A WCI 27 Montauk N/A 36 26 67 W10G22 29.81R WCI 28 $$ NYZ052-065-067-101400- HUDSON VALLEY CITY SKY/WX TMP DP RH WIND PRES REMARKS White Plains PTCLDY 27 21 78 W8 29.83R WCI 19 Larchmont Harb N/A N/A N/A N/A SW10 N/A Croton On Huds N/A 32 N/A N/A W8 N/A WCI 25 Somers N/A 27 21 80 W2 N/A Brewster N/A 27 21 80 S2 N/A Newburgh PTCLDY 25 21 86 SW12 29.83R WCI 14 Montgomery PTCLDY 21 18 88 SW6 29.83R WCI 13 Otisville N/A 25 19 80 W6 N/A WCI 18 Warwick N/A 25 19 80 W5 N/A WCI 19 Suffern N/A 30 19 64 W6 N/A WCI 24 Poughkeepsie PTCLDY 26 20 77 SW10 29.83R WCI 16 Albany CLOUDY 24 19 81 SW6 29.79R WCI 17 $$ NJZ001-105-106-008-010-013-015-019>022-104-101400- NEW JERSEY CITY SKY/WX TMP DP RH WIND PRES REMARKS Newark/Liberty PTCLDY 28 20 71 W9 29.89R WCI 19 Teterboro PTCLDY 29 19 66 W6 29.87R WCI 23 Caldwell PTCLDY 25 21 85 S5 29.89R WCI 19 Somerville PTCLDY 21 19 92 CALM 29.90R Linden FAIR 28 20 72 W7 29.90R WCI 20 Perth Amboy N/A N/A N/A N/A W9 N/A Sussex CLEAR 18 17 96 CALM 29.86R Andover NOT AVBL Trenton CLEAR 27 20 75 W8 29.92R WCI 19 Millville CLEAR 28 24 85 W8 29.97R WCI 20 Atlantic City CLEAR 30 25 81 W9 29.96R WCI 22 Wrightstown CLEAR 27 21 76 W7 29.91R WCI 20 Toms River CLEAR 26 24 92 W7 29.94R WCI 18 Belmar CLEAR 26 22 84 W9 29.92R WCI 17 $$ PAZ047>061-062-071-101400- EASTERN PENNSYLVANIA CITY SKY/WX TMP DP RH WIND PRES REMARKS Philadelphia PTCLDY 29 21 72 W13 29.97R WCI 19 Allentown PTCLDY 21 16 81 SW7 29.91R WCI 12 Scranton CLOUDY 26 20 77 SW6 29.86R WCI 19 $$ CTZ002-004>006-009-010-012-RIZ004-006-007-MAZ004-011-015-101400- SOUTHERN NEW ENGLAND IN CT CITY SKY/WX TMP DP RH WIND PRES REMARKS Bradley INTL MOCLDY 28 21 75 W3 29.78R Hartford PTCLDY 28 23 81 S3 29.81R Danbury PTCLDY 27 21 78 SW7 29.83R WCI 19 Wtrbury/Oxford PTCLDY 25 23 92 VRB6 29.79R WCI 18 Norwalk Harbor N/A N/A N/A N/A W10 N/A Bridgeport CLOUDY 30 25 81 W7 29.84R WCI 23 Meriden PTCLDY 24 23 96 CALM 29.81R New Haven CLOUDY 31 26 82 W6 29.82R WCI 25 Chester FAIR 28 25 86 VRB5 29.79R WCI 23 Groton PTCLDY 32 23 69 NW9 29.79R WCI 24 Wilimantic CLOUDY 29 24 82 CALM 29.79R IN RI CITY SKY/WX TMP DP RH WIND PRES REMARKS Providence CLOUDY 31 28 89 W7 29.76R WCI 24 Block Island CLOUDY 34 30 85 NW12G17 29.79R WCI 25 Westerly CLOUDY 32 28 85 VRB5 29.79R WCI 27 IN MA CITY SKY/WX TMP DP RH WIND PRES REMARKS Boston MOCLDY 32 27 81 W16 29.73R WCI 21 Worcester CLOUDY 25 21 85 W12 29.70R WCI 14 Westfield PTCLDY 28 22 78 W6 29.77R WCI 22 Provincetown CLOUDY 35 31 85 W16 29.72R WCI 25 Nantucket CLOUDY 36 36 100 W9 29.73R WCI 29 $$ ANZ330-335-338-340-345-350-353-355-101400- COASTAL MARINE OBSERVATIONS STATION/POSITION TIME SKY/WX TEMP WIND PRES VSBY WAVE AIR SEA DIR/SP/G HT/PER (UTC) (F) (DEG/KT/KT) (MB) (MI) (FT/S) NY HARB ENTRANCE 1150 36 52 280/ 19/ 23 1010.0 5/ 9 20 S FIRE ISLAND 1150 38 53 300/ 23/ 29 1009.5 7/10 GREAT SOUTH BAY 1230 32 45 290/ 12/ 14 N/A HUDSON CANYON 1150 42 56 280/ 21/ 27 1009.2 9/10 KINGS POINT 1224 31 45 320/ 9/ 11 1012.0 EXECUTION ROCKS 1245 33 260/ 12/ 16 N/A WESTERN LI SOUND 1149 33 270/ 16/ 19 N/A 1/ 3 CENTRAL LI SOUND 1200 34 290/ 14/ 17 N/A 3 ROBBINS REEF 1230 29 280/ 11/ 13 1012.2 $$ >>>>>>>>>>>>>>>>>>>>>>>>>>>> KEY <<<<<<<<<<<<<<<<<<<<<<<<<<< > < > SKY/WX - Sky Condition/Present Weather < > TMP - Temperature in Fahrenheit < > DP - Dew Point in Fahrenheit < > RH - Relative Humidity in Percent < > WIND - Direction (from) and Speed in MPH < > PRES - Mean Sea Level Pressure (inches of Hg) < > WCI - Wind Chill Index < > VSB - VISIBILITY IN MILES < > HX - HEAT INDEX < > TC - TEMPERATURE IN CELSIUS < > VRB - VARIABLE WIND DIRECTION < > < >>>>>>>>>>>>>>>>>>>>>>>>>>>> KEY <<<<<<<<<<<<<<<<<<<<<<<<<<<

USA.gov is the U.S. government's official web portal to all federal, state and local government web resources and services.